logo Eve Who16,844,745 Characters
805,504 Corporations
8,639 Alliances

Home Pilots Corporations Alliances FAQ 

corp logo
Name:Black Rise Minutemen
Ticker:[MINIT]
CEO:Tater Invader
Members:1
Avg. Sec.:0.0
7 Day Delta:0
Activity:Possibly Inactive
LinkszKillboard
Description: 
Some men have their life defined by the acquisition of character and the path they take to maturity;
Others define there own life by traveling a path less beaten; a path of greatness.
It is the one virtue that sets them apart;
Their ability to see the journey for what it has become;
This is our ability.
No greater virtue can be supplemented to stimulate the development of greatness and Power.
Black Rise Minutemen
Come, Embrace Our Path To Greatness™
Last Updated: 2018-10-21 17:03:08 | 1063977737

 Name JoinedLeft
char portraitTater Invadercorp logo2015/06/10 14:05
char portraitThe Rebalancecorp logo2014/06/03 05:522015/07/16 00:08
char portraitAltimucorp logo2011/02/26 17:072014/06/03 05:52
char portraitHerdzocorp logo2011/02/23 04:402011/02/26 16:57
char portraitYonoscorp logo2011/02/13 06:442011/03/02 03:06
char portraitSheridonincorp logo2011/01/21 04:502011/06/11 21:45
char portraitTrespassercorp logo2010/12/03 17:442011/02/28 21:16
char portraitGeekWarriorcorp logo2010/11/15 01:482011/05/23 19:58
char portraitColonel O'Neillcorp logo2010/11/15 01:482011/05/28 04:38
char portraitRogue Entitycorp logo2010/11/15 01:472011/05/30 02:33
char portraitTsadkielcorp logo2010/06/06 04:102011/05/07 02:08
char portraitKineticOnecorp logo2010/05/30 23:252011/12/01 03:00
char portraitvalient twocorp logo2010/05/24 16:082010/06/11 17:21
char portraitVALIENTADVcorp logo2010/05/22 22:222010/07/01 17:58
char portraitYonoscorp logo2010/05/22 20:512010/07/18 05:21
char portraitColonel O'Neillcorp logo2010/05/22 20:232010/06/02 02:48
char portraitTESERACcorp logo2010/05/19 19:392010/06/15 16:42
char portraitnucholscorp logo2010/05/19 19:392010/07/01 05:11
char portraitTrespassercorp logo2010/05/03 03:522010/07/20 07:49
char portraitiRackcorp logo2010/05/03 03:512011/02/28 21:16
char portraitGeekWarriorcorp logo2010/05/03 03:512010/06/30 12:49
char portraitRogue Entitycorp logo2010/05/03 03:512010/07/07 02:10
char portraitValtrinorcorp logo2010/05/03 03:502011/02/28 21:16
char portraitCEO Defiancecorp logo2010/03/09 17:412011/02/27 20:49
char portraitGeekWarriorcorp logo2010/02/11 08:012010/02/28 03:56
char portraitUberfowlcorp logo2009/12/27 23:062010/09/23 22:56
char portraitVishouscorp logo2009/12/15 02:592011/02/28 21:16
char portraitTsadkielcorp logo2009/12/09 05:282010/05/19 02:55
char portraitNuchols hoecorp logo2009/12/08 21:432011/05/06 07:55
char portraitvalient twocorp logo2009/12/08 21:172010/03/28 19:26
char portraitSheridonincorp logo2009/12/08 21:172010/09/24 00:50
char portraitnucholscorp logo2009/12/08 21:172010/03/26 07:24
char portraitVALIENTADVcorp logo2009/12/08 21:152010/04/06 18:07
char portraitTESERACcorp logo2009/12/08 21:152010/04/06 18:11
char portraitTrespassercorp logo2009/12/08 21:152010/03/07 23:30
char portraitGeekWarriorcorp logo2009/12/08 20:522010/01/24 16:22
char portraitRogue Entitycorp logo2009/12/08 20:522010/03/07 01:27
char portraitColonel O'Neillcorp logo2009/12/08 20:522010/01/23 16:12
char portraitBlackIceMaverickcorp logo2009/11/07 10:462009/12/09 07:18
char portraitSheridonincorp logo2009/09/22 06:412009/12/01 21:11
char portraithexdarcorp logo2009/09/08 21:252011/03/10 01:14
char portraithexdarcorp logo2009/09/04 08:062009/09/05 17:08
char portraitiRackcorp logo2009/08/22 14:462010/03/17 18:29
char portraitvinneyzcorp logo2009/08/16 22:172009/10/02 01:17
char portraitHalo Crazycorp logo2009/08/16 22:172009/09/09 17:29
char portraitGeekWarriorcorp logo2009/08/07 01:022009/09/03 14:12
char portraitUberfowlcorp logo2009/07/18 22:352009/10/23 00:43
char portraitYonoacorp logo2009/07/18 01:402009/08/10 00:51
char portraitSheridonincorp logo2009/07/18 01:142009/09/11 20:05
char portraitshadowsrisecorp logo2009/07/09 00:412009/07/31 01:42
char portraitWTFFIGGYcorp logo2009/07/08 23:112009/08/01 02:37
char portraitProximity Minecorp logo2009/07/08 20:422011/06/03 23:28
char portraitColonel O'Neillcorp logo2009/07/08 20:272009/09/22 04:32
char portraitValtrinorcorp logo2009/07/08 18:122010/03/13 22:24
char portraitTrespassercorp logo2009/07/07 03:332009/11/11 06:22
char portraitLansdorfcorp logo2009/07/07 02:292009/08/01 02:37
char portraitSmopcorp logo2009/07/07 02:282010/01/23 16:12
char portraitBentus Rexcorp logo2009/07/07 00:582017/03/03 05:52
char portraitRogue Entitycorp logo2009/07/06 02:192009/09/24 02:58


Current Members Leave History

Any pilots, corporations, or alliances that relate to actual people or entities are purely coincidental.
8q/198ms Disclaimer A / C Brought to you by: Squizz Caphinator Forum Thread
EVE Online and the EVE logo are the registered trademarks of CCP hf. All rights are reserved worldwide. All other trademarks are the property of their respective owners. EVE Online, the EVE logo, EVE and all associated logos and designs are the intellectual property of CCP hf. All artwork, screenshots, characters, vehicles, storylines, world facts or other recognizable features of the intellectual property relating to these trademarks are likewise the intellectual property of CCP hf. CCP hf. has granted permission to evewho.com to use EVE Online and all associated logos and designs for promotional and information purposes on its website but does not endorse, and is not in any way affiliated with, evewho.com. CCP is in no way responsible for the content on or functioning of this website, nor can it be liable for any damage arising from the use of this website.